www.pogodaiklimat.ru

Погода и климат >> Архив погоды >> Беларусь >> Минск


АРХИВ ПОГОДЫ в Минске

Время (UTC), дата Ветер
(напр.,м/с)
 
Видим.   Явления Облачность Т
(С)
Тd
(С)
f
(%)
Тe
(С)
Тes
(С)
Комфортность P
(гПа)
Po
(гПа)
Тmin
(С)
Tmax
(С)
R
(мм)
R24
(мм)
S
(см)
21 11.06 штиль 0 18 км ясно +19.5 +15.8 79 +21 +21 комфорт 1018.4 991.6
00 12.06 С 1 18 км ясно +17.6 +15.6 88 +19 +19 тепло 1017.9 990.9
03 12.06 штиль 0 17 км ясно +18.3 +16.1 87 +19 +20 тепло 1018.1 991.2
06 12.06 Ю 1 10 км ясно +28.0 +16.0 48 +31 +40 душно 1016.7 990.7 +16.0
09 12.06 З 1 15 км 8/8 1410 м
[Cu med, cong]
+30.3 +14.0 37 +32 +36 жарко 1016.3 990.4
12 12.06 З 1 13 км 8/6 1320 м
[Cu med, cong Ac trans]
+31.9 +13.2 32 +33 +38 жарко 1015.4 989.7
15 12.06 СЗ 1 16 км 8/4 1200 м
[Cu hum Ac trans]
+31.2 +13.9 35 +33 +35 жарко 1014.2 988.5
18 12.06 С 1 15 км 6/0
[Ac trans Ci sp]
+24.7 +16.7 61 +28 +28 душно 1015.5 989.2 +32.7
21 12.06 СВ 3 15 км ясно +21.1 +16.5 75 +25 +25 комфорт 1016.5 989.9
00 13.06 СВ 2 14 км ясно +20.0 +17.0 83 +23 +23 комфорт 1017.2 990.5
03 13.06 СВ 1 20 км ясно +19.6 +17.9 90 +23 +24 комфорт 1017.3 990.5
06 13.06 ЮВ 2 20 км ясно +25.2 +18.2 65 +30 +37 душно 1017.7 991.4 +17.2
09 13.06 ЮВ 2 22 км ясно +30.5 +16.9 44 +34 +50 очень
душно
1017.4 991.6
12 13.06 Ю 4 22 км 8/8 1260 м
[Cu med, cong]
+32.1 +15.6 37 +35 +36 очень
душно
1016.4 990.7
15 13.06 ЮВ 3 20 км в посл. час гроза {ливн. осадки} 10/6 1200 м
[Sc Ac trans]
+24.5 +16.7 62 +28 +29 душно 1018.4 992.0
18 13.06 В 2 20 км {гроза, ливн. осадки} 10/0
[Ac trans]
+22.4 +14.5 61 +26 +26 жарко 1018.2 991.6 +34.0 0.3
21 13.06 ЮВ 2 15 км ясно +20.7 +14.1 66 +24 +24 комфорт 1018.9 992.1
00 14.06 ЮВ 2 15 км 3/0
[Ci fib]
+20.1 +16.9 82 +24 +24 комфорт 1018.3 991.5
03 14.06 Ю 1 20 км 3/0
[Ci fib]
+20.0 +17.6 86 +24 +25 комфорт 1018.4 991.6
06 14.06 З 2 22 км ясно +26.4 +16.9 56 +30 +37 душно 1017.4 991.2 +17.7
09 14.06 З 4 17 км 4/4 1200 м
[Cu hum]
+31.1 +14.3 36 +33 +39 душно 1016.7 990.9
12 14.06 З 3 22 км 8/6 1320 м
[Cu hum Ac trans]
+32.3 +14.0 33 +34 +37 душно 1015.7 990.0
15 14.06 З 2
{10}
15 км гроза без осадков 8/8 1200 м
[Cb cap]
+26.1 +16.1 54 +29 +30 жарко 1016.7 990.5
18 14.06 СЗ 1 16 км {гроза} 6/0
[]
+24.5 +17.3 64 +28 +28 душно 1017.0 990.7 +33.7
21 14.06 С 1 10 км 8/0
[Ci fib]
+19.8 +17.0 84 +23 +23 комфорт 1018.4 991.6
00 15.06 С 2 12 км ясно +19.6 +16.1 80 +22 +22 комфорт 1018.4 991.6
03 15.06 СВ 1 15 км 4/0
[Ac trans]
+17.8 +14.8 83 +19 +19 тепло 1018.4 991.6
06 15.06 СЗ 3 20 км ясно +20.8 +9.4 48 +23 +29 комфорт 1018.7 991.9 +17.4
09 15.06 С 3 15 км 3/0
[Ci fib]
+24.0 +9.6 40 +25 +37 комфорт 1018.2 991.7
12 15.06 СВ 3 12 км 3/0
[Ci fib]
+26.6 +9.9 35 +27 +38 жарко 1016.7 990.5
15 15.06 С 2 17 км 3/0
[Ci fib]
+27.0 +8.4 31 +27 +32 жарко 1015.5 989.3
18 15.06 С 1 18 км 3/0
[Ci fib]
+23.7 +8.6 38 +24 +24 комфорт 1015.6 989.1 +27.7
21 15.06 СВ 1 12 км ясно +15.2 +10.4 73 +16 +16 по сезону 1016.8 989.6
00 16.06 СВ 1 13 км ясно +13.7 +10.9 83 +14 +14 по сезону 1017.2 989.8
03 16.06 СВ 1 15 км 8/0
[Ci fib]
+14.6 +11.7 83 +15 +16 по сезону 1016.5 989.2
06 16.06 ЮВ 3 15 км 10/0
[Ac As]
+19.4 +12.7 65 +21 +23 комфорт 1016.4 989.6 +12.7
09 16.06 В 2 14 км 10/0
[Ac cast]
+22.7 +12.6 53 +25 +30 комфорт 1016.2 989.7
12 16.06 ЮВ 4 12 км слаб. ливневой дождь 10/8 1200 м
[Cb cap Ac trans]
+18.8 +16.4 86 +20 +21 по сезону 1013.9 987.1
15 16.06 ЮВ 3 13 км слаб. ливневой дождь {гроза} 10/10 1020 м
[Cb cap]
+16.6 +13.7 83 +16 +16 прохладно 1014.7 987.7
18 16.06 В 2 12 км {гроза, ливн. осадки} 10/10 1230 м
[Sc]
+16.6 +15.1 91 +17 +17 по сезону 1014.8 987.8 +25.1 12
21 16.06 СВ 1 14 км 8/0
[As trans]
+15.8 +15.2 96 +16 +16 по сезону 1015.0 987.9
00 17.06 С 1 15 км 10/0
[Ac cast]
+14.8 +14.3 97 +15 +15 тепло 1015.2 988.0
03 17.06 штиль 0 11 км 8/0
[Ci fib]
+14.9 +14.4 97 +15 +15 по сезону 1015.3 988.1
06 17.06 СЗ 3 15 км 4/0
[Ci fib]
+19.7 +15.8 78 +22 +28 комфорт 1014.9 988.2 +13.8
09 17.06 СЗ 3 15 км 10/10 600 м
[Sc]
+19.8 +16.4 81 +22 +22 комфорт 1016.1 989.4
12 17.06 З 3 15 км 10/10 930 м
[Sc]
+21.0 +15.1 69 +25 +25 комфорт 1016.4 989.7
15 17.06 СЗ 2 15 км 8/8 1200 м
[Sc]
+21.6 +15.0 66 +25 +26 комфорт 1016.0 989.4
18 17.06 СЗ 2 14 км 8/6 1200 м
[Sc Ac trans]
+19.6 +15.9 79 +22 +22 комфорт 1016.5 989.7 +21.9
21 17.06 СЗ 2 10 км 8/6 600 м
[Sc Ac trans]
+18.2 +15.8 86 +19 +19 тепло 1016.9 990.0
00 18.06 СЗ 2 10 км слаб. ливневой дождь 10/10 400 м
[Cb calv]
+17.7 +16.2 91 +18 +18 тепло 1017.7 990.7
03 18.06 С 2 10 км {ливн. осадки} 8/8 480 м
[Sc]
+15.8 +14.5 92 +16 +16 тепло 1019.0 991.8
06 18.06 С 3 12 км 3/0
[Ci fib]
+19.2 +10.7 58 +20 +26 тепло 1019.4 992.5 +15.5 0.5
09 18.06 С 3 13 км 3/0
[Ac trans Ci fib]
+22.2 +11.0 49 +24 +35 комфорт 1019.3 992.6
12 18.06 СЗ 3 15 км 4/0
[Ci fib]
+24.4 +9.2 38 +25 +36 комфорт 1018.8 992.3
15 18.06 СЗ 2 14 км 3/0
[Ci fib]
+25.5 +8.5 34 +26 +31 жарко 1017.7 991.3
18 18.06 С 1 12 км 3/0
[Ci fib]
+21.9 +11.9 53 +24 +24 комфорт 1017.4 990.8 +25.9

 

Местоположение метеостанции Минск (город Минск, Беларусь): широта 53.96 долгота 27.70 высота над уровнем моря 231 м.

В архиве по умолчанию представлена погода в Минске за последнюю неделю. Архивные данные за месяц целиком и за предыдущие месяцы, начиная с января 2011 года, Вы можете получить, выбрав интересующий диапазон дат из раскрывающегося списка и нажав кнопку "Ввод!".


*Определитесь, кто Вы:
робот инопланетянин человек

Внимание! Время в таблицах - всемирное. Для получения местного времени необходимо прибавить поправку, которая равна 3 ч.

Смотрите также архив погоды в соседних городах и на ближайших метеорологических станциях:

Погода в Борисове (Минская область, Беларусь) (63 км)
Погода в Марьиной Горке (Минская область, Беларусь) (63 км)
Погода в Вилейке (Минская область, Беларусь) (77 км)
Погода в Воложине (Минская область, Беларусь) (78 км)
Погода в Столбцах (Минская область, Беларусь) (83 км)
Погода в Березино (Минская область, Беларусь) (86 км)
Погода в Березинском Заповеднике (Минская область, Беларусь) (95 км)
Погода в Докшицах (Витебская область, Беларусь) (102 км)
Погода в Слуцке (Минская область, Беларусь) (104 км)
Погода в Кличеве (Могилевская область, Беларусь) (118 км)

Пояснения к столбцам:

Ветер - указаны скорость ветра в м/с - средняя за 10 мин, порывы в срок и между сроками (в фигурных скобках) и направление, откуда дует ветер: С - северный, СВ - северо-восточный, В - восточный, ЮВ - юго-восточный, Ю - южный, ЮЗ - юго-западный, З - западный, СЗ - северо-западный.
Видимость - горизонтальная дальность видимости в метрах или километрах. При видимости от 1 до 10 км при отсутствии осадков обычно наблюдается дымка, при ухудшении видимости до 1 км и менее - туман. В сухую погоду видимость может ухудшаться дымом, пылью или мглою.
Явления - указаны атмосферные явления, наблюдавшиеся в срок или в последний час перед сроком; фигурными скобками обозначены явления, наблюдавшиеся между сроками (за 1-3 часа до срока); квадратными скобками обозначены град или гололедные отложения с указанием их диаметра в мм.
Облачность - указаны через наклонную черту общая и нижняя облачность в баллах и высота нижней границы облаков в метрах; квадратными скобками обозначены формы облаков: Ci - перистые, Cs - перисто-слоистые, Cc - перисто-кучевые, Ac - высококучевые, As - высокослоистые, Sc - слоисто-кучевые, Ns - слоисто-дождевые, Cu - кучевые, Cb - кучево-дождевые. Подробнее классификацию облаков см. в Атласе облаков (PDF).
T - Температура воздуха - температура, измеренная на высоте 2 м над землей.
Td - Температура точки росы - температура, при понижении до которой содержащийся в воздухе водяной пар достигнет насыщения.
f - Относительная влажность воздуха - влажноcть воздуха, измеренная на высоте 2 м над землей.
Te - Эффективная температура - температура, которую ощущает одетый по сезону человек в тени. Характеристика душности погоды. При расчете учитывается влияние влажности воздуха и скорости ветра на теплоощущения человека.
Tes - Эффективная температура на солнце - температура, которую ощущает человек, с поправкой на солнечный нагрев. Характеристика знойности погоды. Зависит от высоты солнца над горизонтом, облачности и скорости ветра. Ночью, в пасмурную погоду, а также при ветре 12 м/с и более поправка равна нулю.
P - Атмосферное давление - приведенное к уровню моря атмосферное давление.
Po - Атмосферное давление - измеренное на уровне метеостанции атмосферное давление.
Tmin - Минимальная температура - минимум температуры воздуха на высоте 2 м над землей.
Tmax - Максимальная температура - максимум температуры воздуха на высоте 2 м над землей.
R - Количество осадков - Количество выпавших осадков за период времени, мм. При наведении курсора мыши на число - период времени, за который выпало указанное количество осадков.
R24 - Количество осадков - Количество выпавших осадков за 24 часа, мм.
S - Снежный покров - Высота снежного покрова, см. При наведении курсора мыши на число - состояние снежного покрова и степень покрытия местности в баллах.